Date AST Hour Ending, MW ,,,,,,,,,,,,,,,,,
2/1/2014 1:00,-1,,,,,,,,,,,,,,,,,
2/1/2014 2:00,1,,,,,,,,,,,,,,,,,
2/1/2014 3:00,10,,,,,,,,,,,,,,,,,
2/1/2014 4:00,2,,,,,,,,,,,,,,,,,
2/1/2014 5:00,-5,,,,,,,,,,,,,,,,,
2/1/2014 6:00,-5,,,,,,,,,,,,,,,,,
2/1/2014 7:00,-5,,,,,,,,,,,,,,,,,
2/1/2014 8:00,-15,,,,,,,,,,,,,,,,,
2/1/2014 9:00,-4,,,,,,,,,,,,,,,,,
2/1/2014 10:00,1,,,,,,,,,,,,,,,,,
2/1/2014 11:00,0,,,,,,,,,,,,,,,,,
2/1/2014 12:00,3,,,,,,,,,,,,,,,,,
2/1/2014 13:00,-5,,,,,,,,,,,,,,,,,
2/1/2014 14:00,-61,,,,,,,,,,,,,,,,,
2/1/2014 15:00,-64,,,,,,,,,,,,,,,,,
2/1/2014 16:00,-4,,,,,,,,,,,,,,,,,
2/1/2014 17:00,-5,,,,,,,,,,,,,,,,,
2/1/2014 18:00,-62,,,,,,,,,,,,,,,,,
2/1/2014 19:00,-55,,,,,,,,,,,,,,,,,
2/1/2014 20:00,-47,,,,,,,,,,,,,,,,,
2/1/2014 21:00,-4,,,,,,,,,,,,,,,,,
2/1/2014 22:00,-3,,,,,,,,,,,,,,,,,
2/1/2014 23:00,9,,,,,,,,,,,,,,,,,
2/2/2014 0:00,1,,,,,,,,,,,,,,,,,
2/2/2014 1:00,-2,,,,,,,,,,,,,,,,,
2/2/2014 2:00,-8,,,,,,,,,,,,,,,,,
2/2/2014 3:00,6,,,,,,,,,,,,,,,,,
2/2/2014 4:00,-2,,,,,,,,,,,,,,,,,
2/2/2014 5:00,-9,,,,,,,,,,,,,,,,,
2/2/2014 6:00,-9,,,,,,,,,,,,,,,,,
2/2/2014 7:00,-10,,,,,,,,,,,,,,,,,
2/2/2014 8:00,-8,,,,,,,,,,,,,,,,,
2/2/2014 9:00,-2,,,,,,,,,,,,,,,,,
2/2/2014 10:00,-8,,,,,,,,,,,,,,,,,
2/2/2014 11:00,-7,,,,,,,,,,,,,,,,,
2/2/2014 12:00,-4,,,,,,,,,,,,,,,,,
2/2/2014 13:00,-37,,,,,,,,,,,,,,,,,
2/2/2014 14:00,-37,,,,,,,,,,,,,,,,,
2/2/2014 15:00,-42,,,,,,,,,,,,,,,,,
2/2/2014 16:00,-10,,,,,,,,,,,,,,,,,
2/2/2014 17:00,-3,,,,,,,,,,,,,,,,,
2/2/2014 18:00,-5,,,,,,,,,,,,,,,,,
2/2/2014 19:00,6,,,,,,,,,,,,,,,,,
2/2/2014 20:00,-5,,,,,,,,,,,,,,,,,
2/2/2014 21:00,-2,,,,,,,,,,,,,,,,,
2/2/2014 22:00,2,,,,,,,,,,,,,,,,,
2/2/2014 23:00,-2,,,,,,,,,,,,,,,,,
2/3/2014 0:00,-3,,,,,,,,,,,,,,,,,
2/3/2014 1:00,-12,,,,,,,,,,,,,,,,,
2/3/2014 2:00,-45,,,,,,,,,,,,,,,,,
2/3/2014 3:00,-52,,,,,,,,,,,,,,,,,
2/3/2014 4:00,-54,,,,,,,,,,,,,,,,,
2/3/2014 5:00,-87,,,,,,,,,,,,,,,,,
2/3/2014 6:00,-110,,,,,,,,,,,,,,,,,
2/3/2014 7:00,-110,,,,,,,,,,,,,,,,,
2/3/2014 8:00,-98,,,,,,,,,,,,,,,,,
2/3/2014 9:00,-1,,,,,,,,,,,,,,,,,
2/3/2014 10:00,-7,,,,,,,,,,,,,,,,,
2/3/2014 11:00,-6,,,,,,,,,,,,,,,,,
2/3/2014 12:00,-4,,,,,,,,,,,,,,,,,
2/3/2014 13:00,-4,,,,,,,,,,,,,,,,,
2/3/2014 14:00,3,,,,,,,,,,,,,,,,,
2/3/2014 15:00,7,,,,,,,,,,,,,,,,,
2/3/2014 16:00,-2,,,,,,,,,,,,,,,,,
2/3/2014 17:00,-2,,,,,,,,,,,,,,,,,
2/3/2014 18:00,-1,,,,,,,,,,,,,,,,,
2/3/2014 19:00,0,,,,,,,,,,,,,,,,,
2/3/2014 20:00,4,,,,,,,,,,,,,,,,,
2/3/2014 21:00,3,,,,,,,,,,,,,,,,,
2/3/2014 22:00,8,,,,,,,,,,,,,,,,,
2/3/2014 23:00,16,,,,,,,,,,,,,,,,,
2/4/2014 0:00,7,,,,,,,,,,,,,,,,,
2/4/2014 1:00,-61,,,,,,,,,,,,,,,,,
2/4/2014 2:00,-44,,,,,,,,,,,,,,,,,
2/4/2014 3:00,-11,,,,,,,,,,,,,,,,,
2/4/2014 4:00,1,,,,,,,,,,,,,,,,,
2/4/2014 5:00,-4,,,,,,,,,,,,,,,,,
2/4/2014 6:00,3,,,,,,,,,,,,,,,,,
2/4/2014 7:00,-60,,,,,,,,,,,,,,,,,
2/4/2014 8:00,-35,,,,,,,,,,,,,,,,,
2/4/2014 9:00,-4,,,,,,,,,,,,,,,,,
2/4/2014 10:00,-147,,,,,,,,,,,,,,,,,
2/4/2014 11:00,-149,,,,,,,,,,,,,,,,,
2/4/2014 12:00,-105,,,,,,,,,,,,,,,,,
2/4/2014 13:00,-43,,,,,,,,,,,,,,,,,
2/4/2014 14:00,1,,,,,,,,,,,,,,,,,
2/4/2014 15:00,2,,,,,,,,,,,,,,,,,
2/4/2014 16:00,0,,,,,,,,,,,,,,,,,
2/4/2014 17:00,-39,,,,,,,,,,,,,,,,,
2/4/2014 18:00,-84,,,,,,,,,,,,,,,,,
2/4/2014 19:00,-73,,,,,,,,,,,,,,,,,
2/4/2014 20:00,-41,,,,,,,,,,,,,,,,,
2/4/2014 21:00,0,,,,,,,,,,,,,,,,,
2/4/2014 22:00,-1,,,,,,,,,,,,,,,,,
2/4/2014 23:00,4,,,,,,,,,,,,,,,,,
2/5/2014 0:00,3,,,,,,,,,,,,,,,,,
2/5/2014 1:00,4,,,,,,,,,,,,,,,,,
2/5/2014 2:00,13,,,,,,,,,,,,,,,,,
2/5/2014 3:00,7,,,,,,,,,,,,,,,,,
2/5/2014 4:00,2,,,,,,,,,,,,,,,,,
2/5/2014 5:00,1,,,,,,,,,,,,,,,,,
2/5/2014 6:00,1,,,,,,,,,,,,,,,,,
2/5/2014 7:00,-47,,,,,,,,,,,,,,,,,
2/5/2014 8:00,-73,,,,,,,,,,,,,,,,,
2/5/2014 9:00,-78,,,,,,,,,,,,,,,,,
2/5/2014 10:00,-70,,,,,,,,,,,,,,,,,
2/5/2014 11:00,-46,,,,,,,,,,,,,,,,,
2/5/2014 12:00,-47,,,,,,,,,,,,,,,,,
2/5/2014 13:00,-44,,,,,,,,,,,,,,,,,
2/5/2014 14:00,-53,,,,,,,,,,,,,,,,,
2/5/2014 15:00,-83,,,,,,,,,,,,,,,,,
2/5/2014 16:00,-88,,,,,,,,,,,,,,,,,
2/5/2014 17:00,-112,,,,,,,,,,,,,,,,,
2/5/2014 18:00,-99,,,,,,,,,,,,,,,,,
2/5/2014 19:00,-88,,,,,,,,,,,,,,,,,
2/5/2014 20:00,-3,,,,,,,,,,,,,,,,,
2/5/2014 21:00,3,,,,,,,,,,,,,,,,,
2/5/2014 22:00,10,,,,,,,,,,,,,,,,,
2/5/2014 23:00,6,,,,,,,,,,,,,,,,,
2/6/2014 0:00,0,,,,,,,,,,,,,,,,,
2/6/2014 1:00,8,,,,,,,,,,,,,,,,,
2/6/2014 2:00,-4,,,,,,,,,,,,,,,,,
2/6/2014 3:00,-1,,,,,,,,,,,,,,,,,
2/6/2014 4:00,3,,,,,,,,,,,,,,,,,
2/6/2014 5:00,1,,,,,,,,,,,,,,,,,
2/6/2014 6:00,0,,,,,,,,,,,,,,,,,
2/6/2014 7:00,-8,,,,,,,,,,,,,,,,,
2/6/2014 8:00,-37,,,,,,,,,,,,,,,,,
2/6/2014 9:00,-41,,,,,,,,,,,,,,,,,
2/6/2014 10:00,-35,,,,,,,,,,,,,,,,,
2/6/2014 11:00,-34,,,,,,,,,,,,,,,,,
2/6/2014 12:00,-51,,,,,,,,,,,,,,,,,
2/6/2014 13:00,-46,,,,,,,,,,,,,,,,,
2/6/2014 14:00,-34,,,,,,,,,,,,,,,,,
2/6/2014 15:00,-44,,,,,,,,,,,,,,,,,
2/6/2014 16:00,-51,,,,,,,,,,,,,,,,,
2/6/2014 17:00,-41,,,,,,,,,,,,,,,,,
2/6/2014 18:00,-95,,,,,,,,,,,,,,,,,
2/6/2014 19:00,-101,,,,,,,,,,,,,,,,,
2/6/2014 20:00,-46,,,,,,,,,,,,,,,,,
2/6/2014 21:00,-3,,,,,,,,,,,,,,,,,
2/6/2014 22:00,-1,,,,,,,,,,,,,,,,,
2/6/2014 23:00,-41,,,,,,,,,,,,,,,,,
2/7/2014 0:00,-5,,,,,,,,,,,,,,,,,
2/7/2014 1:00,-3,,,,,,,,,,,,,,,,,
2/7/2014 2:00,6,,,,,,,,,,,,,,,,,
2/7/2014 3:00,8,,,,,,,,,,,,,,,,,
2/7/2014 4:00,6,,,,,,,,,,,,,,,,,
2/7/2014 5:00,-1,,,,,,,,,,,,,,,,,
2/7/2014 6:00,-6,,,,,,,,,,,,,,,,,
2/7/2014 7:00,-45,,,,,,,,,,,,,,,,,
2/7/2014 8:00,-74,,,,,,,,,,,,,,,,,
2/7/2014 9:00,-75,,,,,,,,,,,,,,,,,
2/7/2014 10:00,-40,,,,,,,,,,,,,,,,,
2/7/2014 11:00,-3,,,,,,,,,,,,,,,,,
2/7/2014 12:00,1,,,,,,,,,,,,,,,,,
2/7/2014 13:00,-64,,,,,,,,,,,,,,,,,
2/7/2014 14:00,-114,,,,,,,,,,,,,,,,,
2/7/2014 15:00,-132,,,,,,,,,,,,,,,,,
2/7/2014 16:00,-146,,,,,,,,,,,,,,,,,
2/7/2014 17:00,-72,,,,,,,,,,,,,,,,,
2/7/2014 18:00,-9,,,,,,,,,,,,,,,,,
2/7/2014 19:00,-8,,,,,,,,,,,,,,,,,
2/7/2014 20:00,-9,,,,,,,,,,,,,,,,,
2/7/2014 21:00,-10,,,,,,,,,,,,,,,,,
2/7/2014 22:00,-33,,,,,,,,,,,,,,,,,
2/7/2014 23:00,-54,,,,,,,,,,,,,,,,,
2/8/2014 0:00,-52,,,,,,,,,,,,,,,,,
2/8/2014 1:00,-5,,,,,,,,,,,,,,,,,
2/8/2014 2:00,-3,,,,,,,,,,,,,,,,,
2/8/2014 3:00,-5,,,,,,,,,,,,,,,,,
2/8/2014 4:00,0,,,,,,,,,,,,,,,,,
2/8/2014 5:00,5,,,,,,,,,,,,,,,,,
2/8/2014 6:00,-8,,,,,,,,,,,,,,,,,
2/8/2014 7:00,-14,,,,,,,,,,,,,,,,,
2/8/2014 8:00,-7,,,,,,,,,,,,,,,,,
2/8/2014 9:00,-2,,,,,,,,,,,,,,,,,
2/8/2014 10:00,2,,,,,,,,,,,,,,,,,
2/8/2014 11:00,9,,,,,,,,,,,,,,,,,
2/8/2014 12:00,9,,,,,,,,,,,,,,,,,
2/8/2014 13:00,2,,,,,,,,,,,,,,,,,
2/8/2014 14:00,8,,,,,,,,,,,,,,,,,
2/8/2014 15:00,1,,,,,,,,,,,,,,,,,
2/8/2014 16:00,5,,,,,,,,,,,,,,,,,
2/8/2014 17:00,-2,,,,,,,,,,,,,,,,,
2/8/2014 18:00,-10,,,,,,,,,,,,,,,,,
2/8/2014 19:00,-1,,,,,,,,,,,,,,,,,
2/8/2014 20:00,-2,,,,,,,,,,,,,,,,,
2/8/2014 21:00,-2,,,,,,,,,,,,,,,,,
2/8/2014 22:00,-1,,,,,,,,,,,,,,,,,
2/8/2014 23:00,2,,,,,,,,,,,,,,,,,
2/9/2014 0:00,-1,,,,,,,,,,,,,,,,,
2/9/2014 1:00,-3,,,,,,,,,,,,,,,,,
2/9/2014 2:00,-9,,,,,,,,,,,,,,,,,
2/9/2014 3:00,-2,,,,,,,,,,,,,,,,,
2/9/2014 4:00,-1,,,,,,,,,,,,,,,,,
2/9/2014 5:00,-2,,,,,,,,,,,,,,,,,
2/9/2014 6:00,4,,,,,,,,,,,,,,,,,
2/9/2014 7:00,-2,,,,,,,,,,,,,,,,,
2/9/2014 8:00,0,,,,,,,,,,,,,,,,,
2/9/2014 9:00,-2,,,,,,,,,,,,,,,,,
2/9/2014 10:00,0,,,,,,,,,,,,,,,,,
2/9/2014 11:00,3,,,,,,,,,,,,,,,,,
2/9/2014 12:00,1,,,,,,,,,,,,,,,,,
2/9/2014 13:00,-2,,,,,,,,,,,,,,,,,
2/9/2014 14:00,4,,,,,,,,,,,,,,,,,
2/9/2014 15:00,1,,,,,,,,,,,,,,,,,
2/9/2014 16:00,29,,,,,,,,,,,,,,,,,
2/9/2014 17:00,32,,,,,,,,,,,,,,,,,
2/9/2014 18:00,2,,,,,,,,,,,,,,,,,
2/9/2014 19:00,-2,,,,,,,,,,,,,,,,,
2/9/2014 20:00,-1,,,,,,,,,,,,,,,,,
2/9/2014 21:00,0,,,,,,,,,,,,,,,,,
2/9/2014 22:00,-1,,,,,,,,,,,,,,,,,
2/9/2014 23:00,3,,,,,,,,,,,,,,,,,
2/10/2014 0:00,3,,,,,,,,,,,,,,,,,
2/10/2014 1:00,3,,,,,,,,,,,,,,,,,
2/10/2014 2:00,4,,,,,,,,,,,,,,,,,
2/10/2014 3:00,-5,,,,,,,,,,,,,,,,,
2/10/2014 4:00,-7,,,,,,,,,,,,,,,,,
2/10/2014 5:00,0,,,,,,,,,,,,,,,,,
2/10/2014 6:00,-4,,,,,,,,,,,,,,,,,
2/10/2014 7:00,-1,,,,,,,,,,,,,,,,,
2/10/2014 8:00,-1,,,,,,,,,,,,,,,,,
2/10/2014 9:00,-1,,,,,,,,,,,,,,,,,
2/10/2014 10:00,3,,,,,,,,,,,,,,,,,
2/10/2014 11:00,0,,,,,,,,,,,,,,,,,
2/10/2014 12:00,1,,,,,,,,,,,,,,,,,
2/10/2014 13:00,4,,,,,,,,,,,,,,,,,
2/10/2014 14:00,3,,,,,,,,,,,,,,,,,
2/10/2014 15:00,10,,,,,,,,,,,,,,,,,
2/10/2014 16:00,-6,,,,,,,,,,,,,,,,,
2/10/2014 17:00,-3,,,,,,,,,,,,,,,,,
2/10/2014 18:00,1,,,,,,,,,,,,,,,,,
2/10/2014 19:00,0,,,,,,,,,,,,,,,,,
2/10/2014 20:00,2,,,,,,,,,,,,,,,,,
2/10/2014 21:00,-1,,,,,,,,,,,,,,,,,
2/10/2014 22:00,3,,,,,,,,,,,,,,,,,
2/10/2014 23:00,18,,,,,,,,,,,,,,,,,
2/11/2014 0:00,-7,,,,,,,,,,,,,,,,,
2/11/2014 1:00,-1,,,,,,,,,,,,,,,,,
2/11/2014 2:00,-8,,,,,,,,,,,,,,,,,
2/11/2014 3:00,2,,,,,,,,,,,,,,,,,
2/11/2014 4:00,3,,,,,,,,,,,,,,,,,
2/11/2014 5:00,-5,,,,,,,,,,,,,,,,,
2/11/2014 6:00,5,,,,,,,,,,,,,,,,,
2/11/2014 7:00,0,,,,,,,,,,,,,,,,,
2/11/2014 8:00,-3,,,,,,,,,,,,,,,,,
2/11/2014 9:00,2,,,,,,,,,,,,,,,,,
2/11/2014 10:00,7,,,,,,,,,,,,,,,,,
2/11/2014 11:00,7,,,,,,,,,,,,,,,,,
2/11/2014 12:00,-2,,,,,,,,,,,,,,,,,
2/11/2014 13:00,1,,,,,,,,,,,,,,,,,
2/11/2014 14:00,4,,,,,,,,,,,,,,,,,
2/11/2014 15:00,-2,,,,,,,,,,,,,,,,,
2/11/2014 16:00,-3,,,,,,,,,,,,,,,,,
2/11/2014 17:00,-3,,,,,,,,,,,,,,,,,
2/11/2014 18:00,-8,,,,,,,,,,,,,,,,,
2/11/2014 19:00,0,,,,,,,,,,,,,,,,,
2/11/2014 20:00,0,,,,,,,,,,,,,,,,,
2/11/2014 21:00,4,,,,,,,,,,,,,,,,,
2/11/2014 22:00,2,,,,,,,,,,,,,,,,,
2/11/2014 23:00,9,,,,,,,,,,,,,,,,,
2/12/2014 0:00,5,,,,,,,,,,,,,,,,,
2/12/2014 1:00,-12,,,,,,,,,,,,,,,,,
2/12/2014 2:00,-7,,,,,,,,,,,,,,,,,
2/12/2014 3:00,-2,,,,,,,,,,,,,,,,,
2/12/2014 4:00,6,,,,,,,,,,,,,,,,,
2/12/2014 5:00,-6,,,,,,,,,,,,,,,,,
2/12/2014 6:00,-10,,,,,,,,,,,,,,,,,
2/12/2014 7:00,-8,,,,,,,,,,,,,,,,,
2/12/2014 8:00,-6,,,,,,,,,,,,,,,,,
2/12/2014 9:00,-1,,,,,,,,,,,,,,,,,
2/12/2014 10:00,2,,,,,,,,,,,,,,,,,
2/12/2014 11:00,2,,,,,,,,,,,,,,,,,
2/12/2014 12:00,-1,,,,,,,,,,,,,,,,,
2/12/2014 13:00,-2,,,,,,,,,,,,,,,,,
2/12/2014 14:00,2,,,,,,,,,,,,,,,,,
2/12/2014 15:00,2,,,,,,,,,,,,,,,,,
2/12/2014 16:00,-1,,,,,,,,,,,,,,,,,
2/12/2014 17:00,-1,,,,,,,,,,,,,,,,,
2/12/2014 18:00,-10,,,,,,,,,,,,,,,,,
2/12/2014 19:00,1,,,,,,,,,,,,,,,,,
2/12/2014 20:00,-2,,,,,,,,,,,,,,,,,
2/12/2014 21:00,0,,,,,,,,,,,,,,,,,
2/12/2014 22:00,2,,,,,,,,,,,,,,,,,
2/12/2014 23:00,1,,,,,,,,,,,,,,,,,
2/13/2014 0:00,2,,,,,,,,,,,,,,,,,
2/13/2014 1:00,0,,,,,,,,,,,,,,,,,
2/13/2014 2:00,17,,,,,,,,,,,,,,,,,
2/13/2014 3:00,4,,,,,,,,,,,,,,,,,
2/13/2014 4:00,17,,,,,,,,,,,,,,,,,
2/13/2014 5:00,1,,,,,,,,,,,,,,,,,
2/13/2014 6:00,7,,,,,,,,,,,,,,,,,
2/13/2014 7:00,-1,,,,,,,,,,,,,,,,,
2/13/2014 8:00,1,,,,,,,,,,,,,,,,,
2/13/2014 9:00,-1,,,,,,,,,,,,,,,,,
2/13/2014 10:00,-1,,,,,,,,,,,,,,,,,
2/13/2014 11:00,4,,,,,,,,,,,,,,,,,
2/13/2014 12:00,-2,,,,,,,,,,,,,,,,,
2/13/2014 13:00,-4,,,,,,,,,,,,,,,,,
2/13/2014 14:00,12,,,,,,,,,,,,,,,,,
2/13/2014 15:00,21,,,,,,,,,,,,,,,,,
2/13/2014 16:00,33,,,,,,,,,,,,,,,,,
2/13/2014 17:00,39,,,,,,,,,,,,,,,,,
2/13/2014 18:00,-2,,,,,,,,,,,,,,,,,
2/13/2014 19:00,1,,,,,,,,,,,,,,,,,
2/13/2014 20:00,1,,,,,,,,,,,,,,,,,
2/13/2014 21:00,3,,,,,,,,,,,,,,,,,
2/13/2014 22:00,6,,,,,,,,,,,,,,,,,
2/13/2014 23:00,4,,,,,,,,,,,,,,,,,
2/14/2014 0:00,-2,,,,,,,,,,,,,,,,,
2/14/2014 1:00,-4,,,,,,,,,,,,,,,,,
2/14/2014 2:00,3,,,,,,,,,,,,,,,,,
2/14/2014 3:00,10,,,,,,,,,,,,,,,,,
2/14/2014 4:00,3,,,,,,,,,,,,,,,,,
2/14/2014 5:00,3,,,,,,,,,,,,,,,,,
2/14/2014 6:00,4,,,,,,,,,,,,,,,,,
2/14/2014 7:00,-9,,,,,,,,,,,,,,,,,
2/14/2014 8:00,-7,,,,,,,,,,,,,,,,,
2/14/2014 9:00,-6,,,,,,,,,,,,,,,,,
2/14/2014 10:00,-3,,,,,,,,,,,,,,,,,
2/14/2014 11:00,1,,,,,,,,,,,,,,,,,
2/14/2014 12:00,-1,,,,,,,,,,,,,,,,,
2/14/2014 13:00,38,,,,,,,,,,,,,,,,,
2/14/2014 14:00,16,,,,,,,,,,,,,,,,,
2/14/2014 15:00,-1,,,,,,,,,,,,,,,,,
2/14/2014 16:00,-1,,,,,,,,,,,,,,,,,
2/14/2014 17:00,1,,,,,,,,,,,,,,,,,
2/14/2014 18:00,-3,,,,,,,,,,,,,,,,,
2/14/2014 19:00,2,,,,,,,,,,,,,,,,,
2/14/2014 20:00,4,,,,,,,,,,,,,,,,,
2/14/2014 21:00,1,,,,,,,,,,,,,,,,,
2/14/2014 22:00,3,,,,,,,,,,,,,,,,,
2/14/2014 23:00,9,,,,,,,,,,,,,,,,,
2/15/2014 0:00,7,,,,,,,,,,,,,,,,,
2/15/2014 1:00,-5,,,,,,,,,,,,,,,,,
2/15/2014 2:00,-3,,,,,,,,,,,,,,,,,
2/15/2014 3:00,-1,,,,,,,,,,,,,,,,,
2/15/2014 4:00,-2,,,,,,,,,,,,,,,,,
2/15/2014 5:00,0,,,,,,,,,,,,,,,,,
2/15/2014 6:00,0,,,,,,,,,,,,,,,,,
2/15/2014 7:00,0,,,,,,,,,,,,,,,,,
2/15/2014 8:00,-3,,,,,,,,,,,,,,,,,
2/15/2014 9:00,8,,,,,,,,,,,,,,,,,
2/15/2014 10:00,6,,,,,,,,,,,,,,,,,
2/15/2014 11:00,-28,,,,,,,,,,,,,,,,,
2/15/2014 12:00,-48,,,,,,,,,,,,,,,,,
2/15/2014 13:00,-49,,,,,,,,,,,,,,,,,
2/15/2014 14:00,-51,,,,,,,,,,,,,,,,,
2/15/2014 15:00,-52,,,,,,,,,,,,,,,,,
2/15/2014 16:00,-52,,,,,,,,,,,,,,,,,
2/15/2014 17:00,-50,,,,,,,,,,,,,,,,,
2/15/2014 18:00,-49,,,,,,,,,,,,,,,,,
2/15/2014 19:00,-51,,,,,,,,,,,,,,,,,
2/15/2014 20:00,-51,,,,,,,,,,,,,,,,,
2/15/2014 21:00,-43,,,,,,,,,,,,,,,,,
2/15/2014 22:00,-46,,,,,,,,,,,,,,,,,
2/15/2014 23:00,-50,,,,,,,,,,,,,,,,,
2/16/2014 0:00,-40,,,,,,,,,,,,,,,,,
2/16/2014 1:00,36,,,,,,,,,,,,,,,,,
2/16/2014 2:00,25,,,,,,,,,,,,,,,,,
2/16/2014 3:00,26,,,,,,,,,,,,,,,,,
2/16/2014 4:00,27,,,,,,,,,,,,,,,,,
2/16/2014 5:00,25,,,,,,,,,,,,,,,,,
2/16/2014 6:00,25,,,,,,,,,,,,,,,,,
2/16/2014 7:00,16,,,,,,,,,,,,,,,,,
2/16/2014 8:00,12,,,,,,,,,,,,,,,,,
2/16/2014 9:00,20,,,,,,,,,,,,,,,,,
2/16/2014 10:00,-4,,,,,,,,,,,,,,,,,
2/16/2014 11:00,-3,,,,,,,,,,,,,,,,,
2/16/2014 12:00,-69,,,,,,,,,,,,,,,,,
2/16/2014 13:00,-67,,,,,,,,,,,,,,,,,
2/16/2014 14:00,-66,,,,,,,,,,,,,,,,,
2/16/2014 15:00,-49,,,,,,,,,,,,,,,,,
2/16/2014 16:00,-46,,,,,,,,,,,,,,,,,
2/16/2014 17:00,-47,,,,,,,,,,,,,,,,,
2/16/2014 18:00,-45,,,,,,,,,,,,,,,,,
2/16/2014 19:00,-1,,,,,,,,,,,,,,,,,
2/16/2014 20:00,0,,,,,,,,,,,,,,,,,
2/16/2014 21:00,-2,,,,,,,,,,,,,,,,,
2/16/2014 22:00,10,,,,,,,,,,,,,,,,,
2/16/2014 23:00,6,,,,,,,,,,,,,,,,,
2/17/2014 0:00,10,,,,,,,,,,,,,,,,,
2/17/2014 1:00,6,,,,,,,,,,,,,,,,,
2/17/2014 2:00,2,,,,,,,,,,,,,,,,,
2/17/2014 3:00,5,,,,,,,,,,,,,,,,,
2/17/2014 4:00,3,,,,,,,,,,,,,,,,,
2/17/2014 5:00,-5,,,,,,,,,,,,,,,,,
2/17/2014 6:00,-16,,,,,,,,,,,,,,,,,
2/17/2014 7:00,-13,,,,,,,,,,,,,,,,,
2/17/2014 8:00,-6,,,,,,,,,,,,,,,,,
2/17/2014 9:00,0,,,,,,,,,,,,,,,,,
2/17/2014 10:00,0,,,,,,,,,,,,,,,,,
2/17/2014 11:00,-1,,,,,,,,,,,,,,,,,
2/17/2014 12:00,1,,,,,,,,,,,,,,,,,
2/17/2014 13:00,3,,,,,,,,,,,,,,,,,
2/17/2014 14:00,-1,,,,,,,,,,,,,,,,,
2/17/2014 15:00,1,,,,,,,,,,,,,,,,,
2/17/2014 16:00,-10,,,,,,,,,,,,,,,,,
2/17/2014 17:00,-49,,,,,,,,,,,,,,,,,
2/17/2014 18:00,-55,,,,,,,,,,,,,,,,,
2/17/2014 19:00,1,,,,,,,,,,,,,,,,,
2/17/2014 20:00,1,,,,,,,,,,,,,,,,,
2/17/2014 21:00,1,,,,,,,,,,,,,,,,,
2/17/2014 22:00,2,,,,,,,,,,,,,,,,,
2/17/2014 23:00,4,,,,,,,,,,,,,,,,,
2/18/2014 0:00,-9,,,,,,,,,,,,,,,,,
2/18/2014 1:00,-2,,,,,,,,,,,,,,,,,
2/18/2014 2:00,-3,,,,,,,,,,,,,,,,,
2/18/2014 3:00,12,,,,,,,,,,,,,,,,,
2/18/2014 4:00,-4,,,,,,,,,,,,,,,,,
2/18/2014 5:00,1,,,,,,,,,,,,,,,,,
2/18/2014 6:00,3,,,,,,,,,,,,,,,,,
2/18/2014 7:00,-6,,,,,,,,,,,,,,,,,
2/18/2014 8:00,1,,,,,,,,,,,,,,,,,
2/18/2014 9:00,3,,,,,,,,,,,,,,,,,
2/18/2014 10:00,-3,,,,,,,,,,,,,,,,,
2/18/2014 11:00,-1,,,,,,,,,,,,,,,,,
2/18/2014 12:00,2,,,,,,,,,,,,,,,,,
2/18/2014 13:00,0,,,,,,,,,,,,,,,,,
2/18/2014 14:00,7,,,,,,,,,,,,,,,,,
2/18/2014 15:00,2,,,,,,,,,,,,,,,,,
2/18/2014 16:00,-1,,,,,,,,,,,,,,,,,
2/18/2014 17:00,-22,,,,,,,,,,,,,,,,,
2/18/2014 18:00,-19,,,,,,,,,,,,,,,,,
2/18/2014 19:00,0,,,,,,,,,,,,,,,,,
2/18/2014 20:00,0,,,,,,,,,,,,,,,,,
2/18/2014 21:00,1,,,,,,,,,,,,,,,,,
2/18/2014 22:00,1,,,,,,,,,,,,,,,,,
2/18/2014 23:00,3,,,,,,,,,,,,,,,,,
2/19/2014 0:00,2,,,,,,,,,,,,,,,,,
2/19/2014 1:00,-6,,,,,,,,,,,,,,,,,
2/19/2014 2:00,2,,,,,,,,,,,,,,,,,
2/19/2014 3:00,-5,,,,,,,,,,,,,,,,,
2/19/2014 4:00,16,,,,,,,,,,,,,,,,,
2/19/2014 5:00,7,,,,,,,,,,,,,,,,,
2/19/2014 6:00,2,,,,,,,,,,,,,,,,,
2/19/2014 7:00,-11,,,,,,,,,,,,,,,,,
2/19/2014 8:00,1,,,,,,,,,,,,,,,,,
2/19/2014 9:00,-6,,,,,,,,,,,,,,,,,
2/19/2014 10:00,-2,,,,,,,,,,,,,,,,,
2/19/2014 11:00,4,,,,,,,,,,,,,,,,,
2/19/2014 12:00,3,,,,,,,,,,,,,,,,,
2/19/2014 13:00,2,,,,,,,,,,,,,,,,,
2/19/2014 14:00,2,,,,,,,,,,,,,,,,,
2/19/2014 15:00,-9,,,,,,,,,,,,,,,,,
2/19/2014 16:00,3,,,,,,,,,,,,,,,,,
2/19/2014 17:00,5,,,,,,,,,,,,,,,,,
2/19/2014 18:00,-5,,,,,,,,,,,,,,,,,
2/19/2014 19:00,-3,,,,,,,,,,,,,,,,,
2/19/2014 20:00,-3,,,,,,,,,,,,,,,,,
2/19/2014 21:00,-1,,,,,,,,,,,,,,,,,
2/19/2014 22:00,2,,,,,,,,,,,,,,,,,
2/19/2014 23:00,0,,,,,,,,,,,,,,,,,
2/20/2014 0:00,-4,,,,,,,,,,,,,,,,,
2/20/2014 1:00,-2,,,,,,,,,,,,,,,,,
2/20/2014 2:00,-6,,,,,,,,,,,,,,,,,
2/20/2014 3:00,0,,,,,,,,,,,,,,,,,
2/20/2014 4:00,-11,,,,,,,,,,,,,,,,,
2/20/2014 5:00,2,,,,,,,,,,,,,,,,,
2/20/2014 6:00,-3,,,,,,,,,,,,,,,,,
2/20/2014 7:00,-6,,,,,,,,,,,,,,,,,
2/20/2014 8:00,5,,,,,,,,,,,,,,,,,
2/20/2014 9:00,1,,,,,,,,,,,,,,,,,
2/20/2014 10:00,-1,,,,,,,,,,,,,,,,,
2/20/2014 11:00,-1,,,,,,,,,,,,,,,,,
2/20/2014 12:00,-3,,,,,,,,,,,,,,,,,
2/20/2014 13:00,3,,,,,,,,,,,,,,,,,
2/20/2014 14:00,4,,,,,,,,,,,,,,,,,
2/20/2014 15:00,1,,,,,,,,,,,,,,,,,
2/20/2014 16:00,0,,,,,,,,,,,,,,,,,
2/20/2014 17:00,0,,,,,,,,,,,,,,,,,
2/20/2014 18:00,5,,,,,,,,,,,,,,,,,
2/20/2014 19:00,-3,,,,,,,,,,,,,,,,,
2/20/2014 20:00,6,,,,,,,,,,,,,,,,,
2/20/2014 21:00,8,,,,,,,,,,,,,,,,,
2/20/2014 22:00,12,,,,,,,,,,,,,,,,,
2/20/2014 23:00,2,,,,,,,,,,,,,,,,,
2/21/2014 0:00,-2,,,,,,,,,,,,,,,,,
2/21/2014 1:00,-12,,,,,,,,,,,,,,,,,
2/21/2014 2:00,7,,,,,,,,,,,,,,,,,
2/21/2014 3:00,6,,,,,,,,,,,,,,,,,
2/21/2014 4:00,1,,,,,,,,,,,,,,,,,
2/21/2014 5:00,-1,,,,,,,,,,,,,,,,,
2/21/2014 6:00,-7,,,,,,,,,,,,,,,,,
2/21/2014 7:00,-6,,,,,,,,,,,,,,,,,
2/21/2014 8:00,-1,,,,,,,,,,,,,,,,,
2/21/2014 9:00,0,,,,,,,,,,,,,,,,,
2/21/2014 10:00,1,,,,,,,,,,,,,,,,,
2/21/2014 11:00,1,,,,,,,,,,,,,,,,,
2/21/2014 12:00,-1,,,,,,,,,,,,,,,,,
2/21/2014 13:00,-1,,,,,,,,,,,,,,,,,
2/21/2014 14:00,-4,,,,,,,,,,,,,,,,,
2/21/2014 15:00,-3,,,,,,,,,,,,,,,,,
2/21/2014 16:00,-2,,,,,,,,,,,,,,,,,
2/21/2014 17:00,-1,,,,,,,,,,,,,,,,,
2/21/2014 18:00,-3,,,,,,,,,,,,,,,,,
2/21/2014 19:00,-1,,,,,,,,,,,,,,,,,
2/21/2014 20:00,2,,,,,,,,,,,,,,,,,
2/21/2014 21:00,11,,,,,,,,,,,,,,,,,
2/21/2014 22:00,2,,,,,,,,,,,,,,,,,
2/21/2014 23:00,1,,,,,,,,,,,,,,,,,
2/22/2014 0:00,-8,,,,,,,,,,,,,,,,,
2/22/2014 1:00,-17,,,,,,,,,,,,,,,,,
2/22/2014 2:00,33,,,,,,,,,,,,,,,,,
2/22/2014 3:00,51,,,,,,,,,,,,,,,,,
2/22/2014 4:00,18,,,,,,,,,,,,,,,,,
2/22/2014 5:00,17,,,,,,,,,,,,,,,,,
2/22/2014 6:00,58,,,,,,,,,,,,,,,,,
2/22/2014 7:00,25,,,,,,,,,,,,,,,,,
2/22/2014 8:00,-4,,,,,,,,,,,,,,,,,
2/22/2014 9:00,0,,,,,,,,,,,,,,,,,
2/22/2014 10:00,1,,,,,,,,,,,,,,,,,
2/22/2014 11:00,2,,,,,,,,,,,,,,,,,
2/22/2014 12:00,6,,,,,,,,,,,,,,,,,
2/22/2014 13:00,-2,,,,,,,,,,,,,,,,,
2/22/2014 14:00,-3,,,,,,,,,,,,,,,,,
2/22/2014 15:00,0,,,,,,,,,,,,,,,,,
2/22/2014 16:00,-1,,,,,,,,,,,,,,,,,
2/22/2014 17:00,-4,,,,,,,,,,,,,,,,,
2/22/2014 18:00,-2,,,,,,,,,,,,,,,,,
2/22/2014 19:00,0,,,,,,,,,,,,,,,,,
2/22/2014 20:00,3,,,,,,,,,,,,,,,,,
2/22/2014 21:00,0,,,,,,,,,,,,,,,,,
2/22/2014 22:00,-1,,,,,,,,,,,,,,,,,
2/22/2014 23:00,-3,,,,,,,,,,,,,,,,,
2/23/2014 0:00,-1,,,,,,,,,,,,,,,,,
2/23/2014 1:00,1,,,,,,,,,,,,,,,,,
2/23/2014 2:00,-7,,,,,,,,,,,,,,,,,
2/23/2014 3:00,-2,,,,,,,,,,,,,,,,,
2/23/2014 4:00,-3,,,,,,,,,,,,,,,,,
2/23/2014 5:00,-8,,,,,,,,,,,,,,,,,
2/23/2014 6:00,-8,,,,,,,,,,,,,,,,,
2/23/2014 7:00,-5,,,,,,,,,,,,,,,,,
2/23/2014 8:00,-3,,,,,,,,,,,,,,,,,
2/23/2014 9:00,-40,,,,,,,,,,,,,,,,,
2/23/2014 10:00,-44,,,,,,,,,,,,,,,,,
2/23/2014 11:00,-38,,,,,,,,,,,,,,,,,
2/23/2014 12:00,-7,,,,,,,,,,,,,,,,,
2/23/2014 13:00,0,,,,,,,,,,,,,,,,,
2/23/2014 14:00,0,,,,,,,,,,,,,,,,,
2/23/2014 15:00,-19,,,,,,,,,,,,,,,,,
2/23/2014 16:00,2,,,,,,,,,,,,,,,,,
2/23/2014 17:00,-1,,,,,,,,,,,,,,,,,
2/23/2014 18:00,-50,,,,,,,,,,,,,,,,,
2/23/2014 19:00,-53,,,,,,,,,,,,,,,,,
2/23/2014 20:00,-47,,,,,,,,,,,,,,,,,
2/23/2014 21:00,-3,,,,,,,,,,,,,,,,,
2/23/2014 22:00,-1,,,,,,,,,,,,,,,,,
2/23/2014 23:00,-5,,,,,,,,,,,,,,,,,
2/24/2014 0:00,2,,,,,,,,,,,,,,,,,
2/24/2014 1:00,-14,,,,,,,,,,,,,,,,,
2/24/2014 2:00,3,,,,,,,,,,,,,,,,,
2/24/2014 3:00,-11,,,,,,,,,,,,,,,,,
2/24/2014 4:00,15,,,,,,,,,,,,,,,,,
2/24/2014 5:00,-6,,,,,,,,,,,,,,,,,
2/24/2014 6:00,-5,,,,,,,,,,,,,,,,,
2/24/2014 7:00,-14,,,,,,,,,,,,,,,,,
2/24/2014 8:00,-2,,,,,,,,,,,,,,,,,
2/24/2014 9:00,-1,,,,,,,,,,,,,,,,,
2/24/2014 10:00,-8,,,,,,,,,,,,,,,,,
2/24/2014 11:00,1,,,,,,,,,,,,,,,,,
2/24/2014 12:00,5,,,,,,,,,,,,,,,,,
2/24/2014 13:00,1,,,,,,,,,,,,,,,,,
2/24/2014 14:00,3,,,,,,,,,,,,,,,,,
2/24/2014 15:00,16,,,,,,,,,,,,,,,,,
2/24/2014 16:00,0,,,,,,,,,,,,,,,,,
2/24/2014 17:00,3,,,,,,,,,,,,,,,,,
2/24/2014 18:00,14,,,,,,,,,,,,,,,,,
2/24/2014 19:00,0,,,,,,,,,,,,,,,,,
2/24/2014 20:00,0,,,,,,,,,,,,,,,,,
2/24/2014 21:00,3,,,,,,,,,,,,,,,,,
2/24/2014 22:00,6,,,,,,,,,,,,,,,,,
2/24/2014 23:00,16,,,,,,,,,,,,,,,,,
2/25/2014 0:00,1,,,,,,,,,,,,,,,,,
2/25/2014 1:00,-6,,,,,,,,,,,,,,,,,
2/25/2014 2:00,3,,,,,,,,,,,,,,,,,
2/25/2014 3:00,4,,,,,,,,,,,,,,,,,
2/25/2014 4:00,8,,,,,,,,,,,,,,,,,
2/25/2014 5:00,-1,,,,,,,,,,,,,,,,,
2/25/2014 6:00,9,,,,,,,,,,,,,,,,,
2/25/2014 7:00,4,,,,,,,,,,,,,,,,,
2/25/2014 8:00,-8,,,,,,,,,,,,,,,,,
2/25/2014 9:00,4,,,,,,,,,,,,,,,,,
2/25/2014 10:00,0,,,,,,,,,,,,,,,,,
2/25/2014 11:00,-2,,,,,,,,,,,,,,,,,
2/25/2014 12:00,0,,,,,,,,,,,,,,,,,
2/25/2014 13:00,-1,,,,,,,,,,,,,,,,,
2/25/2014 14:00,-22,,,,,,,,,,,,,,,,,
2/25/2014 15:00,-28,,,,,,,,,,,,,,,,,
2/25/2014 16:00,-26,,,,,,,,,,,,,,,,,
2/25/2014 17:00,-30,,,,,,,,,,,,,,,,,
2/25/2014 18:00,-32,,,,,,,,,,,,,,,,,
2/25/2014 19:00,-1,,,,,,,,,,,,,,,,,
2/25/2014 20:00,1,,,,,,,,,,,,,,,,,
2/25/2014 21:00,0,,,,,,,,,,,,,,,,,
2/25/2014 22:00,6,,,,,,,,,,,,,,,,,
2/25/2014 23:00,4,,,,,,,,,,,,,,,,,
2/26/2014 0:00,-5,,,,,,,,,,,,,,,,,
2/26/2014 1:00,-10,,,,,,,,,,,,,,,,,
2/26/2014 2:00,1,,,,,,,,,,,,,,,,,
2/26/2014 3:00,9,,,,,,,,,,,,,,,,,
2/26/2014 4:00,8,,,,,,,,,,,,,,,,,
2/26/2014 5:00,-4,,,,,,,,,,,,,,,,,
2/26/2014 6:00,-8,,,,,,,,,,,,,,,,,
2/26/2014 7:00,-21,,,,,,,,,,,,,,,,,
2/26/2014 8:00,-11,,,,,,,,,,,,,,,,,
2/26/2014 9:00,0,,,,,,,,,,,,,,,,,
2/26/2014 10:00,-28,,,,,,,,,,,,,,,,,
2/26/2014 11:00,-48,,,,,,,,,,,,,,,,,
2/26/2014 12:00,-49,,,,,,,,,,,,,,,,,
2/26/2014 13:00,-51,,,,,,,,,,,,,,,,,
2/26/2014 14:00,-53,,,,,,,,,,,,,,,,,
2/26/2014 15:00,-53,,,,,,,,,,,,,,,,,
2/26/2014 16:00,-59,,,,,,,,,,,,,,,,,
2/26/2014 17:00,-51,,,,,,,,,,,,,,,,,
2/26/2014 18:00,-53,,,,,,,,,,,,,,,,,
2/26/2014 19:00,-58,,,,,,,,,,,,,,,,,
2/26/2014 20:00,-51,,,,,,,,,,,,,,,,,
2/26/2014 21:00,-139,,,,,,,,,,,,,,,,,
2/26/2014 22:00,-139,,,,,,,,,,,,,,,,,
2/26/2014 23:00,-90,,,,,,,,,,,,,,,,,
2/27/2014 0:00,-47,,,,,,,,,,,,,,,,,
2/27/2014 1:00,-7,,,,,,,,,,,,,,,,,
2/27/2014 2:00,3,,,,,,,,,,,,,,,,,
2/27/2014 3:00,0,,,,,,,,,,,,,,,,,
2/27/2014 4:00,1,,,,,,,,,,,,,,,,,
2/27/2014 5:00,0,,,,,,,,,,,,,,,,,
2/27/2014 6:00,-4,,,,,,,,,,,,,,,,,
2/27/2014 7:00,4,,,,,,,,,,,,,,,,,
2/27/2014 8:00,-25,,,,,,,,,,,,,,,,,
2/27/2014 9:00,-36,,,,,,,,,,,,,,,,,
2/27/2014 10:00,-7,,,,,,,,,,,,,,,,,
2/27/2014 11:00,-27,,,,,,,,,,,,,,,,,
2/27/2014 12:00,-16,,,,,,,,,,,,,,,,,
2/27/2014 13:00,-12,,,,,,,,,,,,,,,,,
2/27/2014 14:00,-9,,,,,,,,,,,,,,,,,
2/27/2014 15:00,-3,,,,,,,,,,,,,,,,,
2/27/2014 16:00,12,,,,,,,,,,,,,,,,,
2/27/2014 17:00,3,,,,,,,,,,,,,,,,,
2/27/2014 18:00,-2,,,,,,,,,,,,,,,,,
2/27/2014 19:00,-12,,,,,,,,,,,,,,,,,
2/27/2014 20:00,-5,,,,,,,,,,,,,,,,,
2/27/2014 21:00,2,,,,,,,,,,,,,,,,,
2/27/2014 22:00,8,,,,,,,,,,,,,,,,,
2/27/2014 23:00,5,,,,,,,,,,,,,,,,,
2/28/2014 0:00,-2,,,,,,,,,,,,,,,,,
2/28/2014 1:00,-5,,,,,,,,,,,,,,,,,
2/28/2014 2:00,-1,,,,,,,,,,,,,,,,,
2/28/2014 3:00,-7,,,,,,,,,,,,,,,,,
2/28/2014 4:00,9,,,,,,,,,,,,,,,,,
2/28/2014 5:00,3,,,,,,,,,,,,,,,,,
2/28/2014 6:00,-7,,,,,,,,,,,,,,,,,
2/28/2014 7:00,4,,,,,,,,,,,,,,,,,
2/28/2014 8:00,7,,,,,,,,,,,,,,,,,
2/28/2014 9:00,4,,,,,,,,,,,,,,,,,
2/28/2014 10:00,-12,,,,,,,,,,,,,,,,,
2/28/2014 11:00,4,,,,,,,,,,,,,,,,,
2/28/2014 12:00,13,,,,,,,,,,,,,,,,,
2/28/2014 13:00,-3,,,,,,,,,,,,,,,,,
2/28/2014 14:00,1,,,,,,,,,,,,,,,,,
2/28/2014 15:00,9,,,,,,,,,,,,,,,,,